Weather History for Clovis, NM

Change the Weather History Date:

Tuesday, February 5, 2013

  Actual Average Record
Temperature  
Mean Temperature 46 °F -  
Max Temperature 64 °F 49 °F 78 °F (1934)
Min Temperature 28 °F 24 °F -1 °F (1982)
Degree Days  
Heating Degree Days 19    
Moisture  
Dew Point 14 °F    
Average Humidity 33    
Maximum Humidity 48    
Minimum Humidity 15    
Precipitation  
Precipitation 0.00 in - - ()
Sea Level Pressure  
Sea Level Pressure 29.99 in    
Wind  
Wind Speed 10 mph (NNW)    
Max Wind Speed 16 mph    
Max Gust Speed 23 mph    
Visibility 10 miles    
Events      
Averages and records for this station are not official NWS values.
T = Trace of Precipitation, MM = Missing Value Source: NWS Daily Summary

Daily Weather History Graph

Daily Weather History Graph

Search for Another Location

Airport:

Trip Planner

Search our weather history database for the weather conditions in past years. The results will help you decide how hot, cold, wet, or windy it might be!

Date:

Astronomy

Feb. 05, 2013 Rise Set
Actual Time 6:46 AM MST 5:26 PM MST
Civil Twilight 6:20 AM MST 5:52 PM MST
Nautical Twilight 5:50 AM MST 6:22 PM MST
Astronomical Twilight 5:21 AM MST 6:51 PM MST
Moon 2:26 AM MST (2/5) 12:50 PM MST (2/5)
Length of Visible Light 11h 32m
Length of Day
10h 39m
Waning Crescent, 26% of the Moon is Illuminated
Feb 5
Waning Crescent
Feb 10
New
Feb 17
First Quarter
Feb 25
Full
Mar 4
Last Quarter

Hourly Weather History & Observations

Time (MST) Temp. Windchill Dew Point Humidity Pressure Visibility Wind Dir Wind Speed Gust Speed Precip Events Conditions
12:15 AM 35.6 °F 28.6 °F 12.2 °F 38% 29.97 in 10.0 mi WSW 9.2 mph - N/A   Clear
12:35 AM 35.6 °F 28.6 °F 12.2 °F 38% 29.97 in 10.0 mi WSW 9.2 mph - N/A   Clear
12:55 AM 33.8 °F 26.4 °F 12.2 °F 41% 29.97 in 10.0 mi WSW 9.2 mph - N/A   Clear
1:15 AM 33.8 °F 26.4 °F 12.2 °F 41% 29.96 in 10.0 mi SW 9.2 mph - N/A   Clear
1:35 AM 32.0 °F 22.5 °F 10.4 °F 41% 29.95 in 10.0 mi SW 12.7 mph - N/A   Clear
1:55 AM 33.8 °F 25.3 °F 12.2 °F 41% 29.94 in 10.0 mi SSW 11.5 mph - N/A   Clear
2:15 AM 33.8 °F 27.7 °F 12.2 °F 41% 29.94 in 10.0 mi SW 6.9 mph - N/A   Clear
2:35 AM 33.8 °F 27.0 °F 12.2 °F 41% 29.94 in 10.0 mi SW 8.1 mph - N/A   Clear
2:55 AM 32.0 °F 24.8 °F 12.2 °F 44% 29.94 in 10.0 mi SW 8.1 mph - N/A   Clear
3:15 AM 30.2 °F 23.4 °F 10.4 °F 44% 29.95 in 10.0 mi WSW 6.9 mph - N/A   Clear
3:35 AM 30.2 °F 23.4 °F 10.4 °F 44% 29.94 in 10.0 mi SW 6.9 mph - N/A   Clear
3:55 AM 28.4 °F 22.2 °F 10.4 °F 47% 29.94 in 10.0 mi SW 5.8 mph - N/A   Clear
4:15 AM 28.4 °F 19.7 °F 10.4 °F 47% 29.94 in 10.0 mi WSW 9.2 mph - N/A   Clear
4:35 AM 30.2 °F 21.9 °F 12.2 °F 47% 29.95 in 10.0 mi WSW 9.2 mph - N/A   Clear
4:55 AM 30.2 °F 21.3 °F 12.2 °F 47% 29.94 in 10.0 mi WSW 10.4 mph - N/A   Clear
5:15 AM 33.8 °F 27.0 °F 14.0 °F 44% 29.95 in 10.0 mi West 8.1 mph - N/A   Clear
5:35 AM 30.2 °F 21.9 °F 12.2 °F 47% 29.95 in 10.0 mi WNW 9.2 mph - N/A   Clear
5:55 AM 30.2 °F 24.3 °F 12.2 °F 47% 29.96 in 10.0 mi West 5.8 mph - N/A   Clear
6:15 AM 28.4 °F 21.2 °F 10.4 °F 47% 29.96 in 10.0 mi West 6.9 mph - N/A   Clear
6:35 AM 28.4 °F 20.4 °F 10.4 °F 47% 29.97 in 10.0 mi West 8.1 mph - N/A   Clear
6:55 AM 30.2 °F 20.8 °F 12.2 °F 47% 29.97 in 10.0 mi West 11.5 mph - N/A   Clear
7:15 AM 33.8 °F 24.8 °F 12.2 °F 41% 29.98 in 10.0 mi West 12.7 mph - N/A   Clear
7:35 AM 35.6 °F 27.5 °F 12.2 °F 38% 30.00 in 10.0 mi West 11.5 mph - N/A   Clear
7:55 AM 37.4 °F 30.8 °F 15.8 °F 41% 30.01 in 10.0 mi NW 9.2 mph - N/A   Clear
8:15 AM 39.2 °F 31.6 °F 15.8 °F 39% 30.01 in 10.0 mi WNW 12.7 mph - N/A   Clear
8:35 AM 42.8 °F 36.2 °F 17.6 °F 36% 30.02 in 10.0 mi NW 12.7 mph - N/A   Clear
8:55 AM 46.4 °F 41.1 °F 19.4 °F 34% 30.02 in 10.0 mi NNW 11.5 mph - N/A   Clear
9:15 AM 48.2 °F - 19.4 °F 32% 30.03 in 10.0 mi North 16.1 mph - N/A   Clear
9:35 AM 51.8 °F - 19.4 °F 28% 30.03 in 10.0 mi North 15.0 mph - N/A   Clear
9:55 AM 53.6 °F - 19.4 °F 26% 30.04 in 10.0 mi North 10.4 mph - N/A   Clear
10:15 AM 55.4 °F - 19.4 °F 25% 30.04 in 10.0 mi NNE 12.7 mph - N/A   Clear
10:35 AM 55.4 °F - 17.6 °F 23% 30.04 in 10.0 mi NE 11.5 mph - N/A   Clear
10:55 AM 57.2 °F - 17.6 °F 21% 30.04 in 10.0 mi NNE 11.5 mph 18.4 mph N/A   Clear
11:15 AM 57.2 °F - 17.6 °F 21% 30.04 in 10.0 mi NNE 11.5 mph - N/A   Clear
11:35 AM 59.0 °F - 17.6 °F 20% 30.03 in 10.0 mi NNE 10.4 mph - N/A   Clear
11:55 AM 60.8 °F - 17.6 °F 19% 30.02 in 10.0 mi NNE 13.8 mph 17.3 mph N/A   Clear
12:15 PM 60.8 °F - 17.6 °F 19% 30.01 in 10.0 mi North 12.7 mph 19.6 mph N/A   Clear
12:35 PM 62.6 °F - 17.6 °F 18% 30.01 in 10.0 mi North 15.0 mph 18.4 mph N/A   Clear
12:55 PM 62.6 °F - 17.6 °F 18% 30.00 in 10.0 mi North 16.1 mph 21.9 mph N/A   Clear
1:15 PM 62.6 °F - 17.6 °F 18% 30.00 in 10.0 mi NNE 16.1 mph 23.0 mph N/A   Clear
1:35 PM 62.6 °F - 17.6 °F 18% 29.99 in 10.0 mi NNE 15.0 mph 23.0 mph N/A   Clear
1:55 PM 64.4 °F - 17.6 °F 16% 29.99 in 10.0 mi NNE 13.8 mph 19.6 mph N/A   Clear
2:15 PM 64.4 °F - 17.6 °F 16% 29.98 in 10.0 mi NE 12.7 mph 18.4 mph N/A   Clear
2:35 PM 64.4 °F - 15.8 °F 15% 29.98 in 10.0 mi NE 10.4 mph 17.3 mph N/A   Clear
2:55 PM 64.4 °F - 15.8 °F 15% 29.98 in 10.0 mi NNE 11.5 mph 17.3 mph N/A   Clear
3:15 PM 62.6 °F - 15.8 °F 16% 29.98 in 10.0 mi North 10.4 mph - N/A   Clear
3:35 PM 62.6 °F - 15.8 °F 16% 29.98 in 10.0 mi NNE 11.5 mph - N/A   Clear
3:55 PM 62.6 °F - 15.8 °F 16% 29.98 in 10.0 mi NNE 10.4 mph - N/A   Clear
4:15 PM 60.8 °F - 15.8 °F 17% 29.98 in 10.0 mi NE 10.4 mph - N/A   Clear
4:35 PM 60.8 °F - 15.8 °F 17% 29.98 in 10.0 mi NNE 9.2 mph - N/A   Clear
4:55 PM 59.0 °F - 15.8 °F 19% 29.98 in 10.0 mi NE 6.9 mph - N/A   Clear
5:15 PM 55.4 °F - 14.0 °F 20% 29.99 in 10.0 mi NE 8.1 mph - N/A   Clear
5:35 PM 51.8 °F - 12.2 °F 21% 29.99 in 10.0 mi NNE 8.1 mph - N/A   Clear
5:55 PM 48.2 °F - 12.2 °F 24% 30.00 in 10.0 mi NNE 8.1 mph - N/A   Clear
6:15 PM 44.6 °F 39.2 °F 12.2 °F 27% 30.00 in 10.0 mi NNE 10.4 mph - N/A   Clear
6:35 PM 44.6 °F 40.2 °F 12.2 °F 27% 30.01 in 10.0 mi North 8.1 mph - N/A   Clear
6:55 PM 42.8 °F 38.0 °F 12.2 °F 29% 30.01 in 10.0 mi NNE 8.1 mph - N/A   Clear
7:15 PM 42.8 °F 37.0 °F 12.2 °F 29% 30.02 in 10.0 mi NNE 10.4 mph - N/A   Clear
7:35 PM 39.2 °F 33.0 °F 12.2 °F 33% 30.02 in 10.0 mi North 9.2 mph - N/A   Clear
7:55 PM 39.2 °F 32.5 °F 12.2 °F 33% 30.02 in 10.0 mi North 10.4 mph - N/A   Clear
8:15 PM 37.4 °F 30.3 °F 12.2 °F 36% 30.02 in 10.0 mi North 10.4 mph - N/A   Clear
8:35 PM 37.4 °F 31.4 °F 12.2 °F 36% 30.03 in 10.0 mi NNE 8.1 mph - N/A   Clear
8:55 PM 35.6 °F 29.2 °F 12.2 °F 38% 30.03 in 10.0 mi North 8.1 mph - N/A   Clear
9:15 PM 35.6 °F 28.6 °F 14.0 °F 41% 30.03 in 10.0 mi North 9.2 mph - N/A   Clear
9:35 PM 35.6 °F 28.0 °F 12.2 °F 38% 30.02 in 10.0 mi NNE 10.4 mph - N/A   Clear
9:55 PM 35.6 °F 28.0 °F 12.2 °F 38% 30.02 in 10.0 mi North 10.4 mph - N/A   Clear
10:15 PM 35.6 °F 28.0 °F 15.8 °F 44% 30.02 in 10.0 mi North 10.4 mph - N/A   Clear
10:35 PM 33.8 °F 25.8 °F 14.0 °F 44% 30.02 in 10.0 mi North 10.4 mph - N/A   Clear
10:55 PM 33.8 °F 26.4 °F 14.0 °F 44% 30.02 in 10.0 mi North 9.2 mph - N/A   Clear
11:15 PM 33.8 °F 26.4 °F 14.0 °F 44% 30.01 in 10.0 mi North 9.2 mph - N/A   Clear
11:35 PM 32.0 °F 24.8 °F 14.0 °F 48% 30.01 in 10.0 mi NNE 8.1 mph - N/A   Clear
11:55 PM 30.2 °F 22.6 °F 12.2 °F 47% 30.01 in 10.0 mi NNE 8.1 mph - N/A   Clear